Location: Columbia
(38.9520°N, 92.3340°W)
Time: 07:34:20
(UTC-06:00)

FENGYUN 3A - Visible Passes

Search period start: 09 December 2016 00:00
Search period end: 19 December 2016 00:00
Orbit: 819 x 834 km, 98.4° (Epoch: 09 December)

Date Brightness Start Highest point End Pass type
(mag) Time Alt. Az. Time Alt. Az. Time Alt. Az.
15 Dec 6.0 19:10:35 11° N 19:10:35 11° N 19:10:42 10° N visible
16 Dec 5.9 18:51:25 11° N 18:51:25 11° N 18:51:33 10° N visible
17 Dec 5.8 18:32:14 10° NNE 18:32:14 10° NNE 18:32:14 10° NNE visible
